Location: Newark
(7.1028°S, 35.3258°W)
Time: 18:22:27
(UTC+00:00)

Envisat - Visible Passes

Search period start: 19 January 2020 00:00
Search period end: 29 January 2020 00:00
Orbit: 764 x 766 km, 98.1° (Epoch: 19 January)

Date Brightness Start Highest point End Pass type
(mag) Time Alt. Az. Time Alt. Az. Time Alt. Az.
19 Jan 3.7 20:58:11 10° S 21:03:12 61° WSW 21:08:11 10° NNW visible
20 Jan 5.6 07:55:01 10° NE 07:59:15 27° ESE 08:03:29 10° SSE visible
21 Jan 5.3 21:24:13 10° SSW 21:28:35 29° WSW 21:32:56 10° NW visible
23 Jan 6.0 07:44:22 10° ENE 07:48:01 20° ESE 07:51:41 10° SSE visible
23 Jan 6.2 21:51:19 10° SW 21:53:55 14° WSW 21:56:31 10° WNW visible
24 Jan 4.7 21:12:36 10° S 21:17:20 39° WSW 21:22:02 10° NW visible
26 Jan 6.3 07:34:02 10° ENE 07:36:47 15° ESE 07:39:33 10° SE visible
26 Jan 6.0 21:39:08 10° SSW 21:42:42 19° WSW 21:46:15 10° WNW visible
27 Jan 4.0 21:01:07 10° S 21:06:05 54° WSW 21:11:01 10° NNW visible
